Regional Weather Roundup
Issued by NWS Portland, ME

Current Version | Previous Version | Text Only | Print | Product List | Glossary Off
Versions: 1 2 3 4 5 6 7 8 9 10 11 12 13 14 15 16 17 18 19 20 21 22 23 24 25 26 27 28 29 30 31 32 33 34 35 36 37 38 39 40 41 42 43 44 45 46 47 48 49 50
000 ASUS41 KGYX 252105 RWRGYX WEATHER ROUNDUP FOR MAINE AND NEW HAMPSHIRE NATIONAL WEATHER SERVICE GRAY ME 500 PM EDT TUE APR 25 2017 MEZ002-005-006-010-012-015-018-020-021-024-026-027-029-252200- MAINE CITY SKY/WX TMP DP RH WIND PRES REMARKS PORTLAND LGT RAIN 44 38 79 E14G26 30.30F SANFORD LGT RAIN 42 41 96 NE14 30.28F FOG BAR HARBOR CLOUDY 47 34 60 VRB7 30.36F WISCASSET CLOUDY 46 40 79 NE6 30.34F ROCKLAND CLOUDY 46 37 71 E10G22 30.34F FRYEBURG CLOUDY 47 44 90 NE8 30.30F LEWISTONAUBURN CLOUDY 49 38 65 E8 30.31 AUGUSTA CLOUDY 49 33 54 SE8 30.33F WATERVILLE CLOUDY 50 32 50 VRB5 30.31F BANGOR CLOUDY 51 35 54 SE14 30.35F GREENVILLE N/A 44 40 85 S7 30.29F MILLINOCKET CLOUDY 55 32 41 S5 30.34F HOULTON MOSUNNY 56 28 34 SE8 30.34F PRESQUE ISLE MOSUNNY 54 26 34 S12 30.34F FRENCHVILLE CLOUDY 49 20 31 S9 30.31F CARIBOU PTSUNNY 54 26 34 S12 30.32F $$ NHZ002-005-008-009-011-012-014-252200- NEW HAMPSHIRE CITY SKY/WX TMP DP RH WIND PRES REMARKS PORTSMOUTH LGT RAIN 43 42 94 NE14 30.25F VSB 1 ROCHESTER LGT RAIN 43 40 89 NE9 30.26F FOG NASHUA RAIN 45 45 100 NE5 30.23F FOG MANCHESTER RAIN 45 41 86 NE8 30.22F FOG CONCORD LGT RAIN 46 44 93 MISG 30.24F FOG LACONIA LGT RAIN 45 44 97 NE8 30.26F FOG PLYMOUTH DRIZZLE 47 42 83 E6 30.25F BERLIN LGT RAIN 47 42 83 S3 30.27F WHITEFIELD LGT RAIN 50 38 63 S5 30.21F JAFFREY LGT RAIN 45 44 97 VRB3 30.18F FOG KEENE LGT RAIN 48 44 86 CALM 30.18F LEBANON LGT RAIN 48 43 82 VRB3 30.21F MT WASHINGTON FRZ RAIN 32 32 100 SE46 N/A VSB 1/16WCI 15 $$ VTZ005-007-008-252200- VERMONT CITY SKY/WX TMP DP RH WIND PRES REMARKS ST JOHNSBURY N/A 51 45 79 MISG 30.19F MONTPELIER CLOUDY 47 40 76 S12 30.23F BURLINGTON LGT RAIN 52 46 80 VRB3 30.15F $$ MAZ007-012-024-CTZ003-RIZ002-NYZ038-NYZ072-252200- SOUTHERN NEW ENGLAND AND NY CITY SKY/WX TMP DP RH WIND PRES REMARKS BOSTON RAIN 46 45 96 NE21G28 30.20F FOG WORCESTER LGT RAIN 43 41 93 NE15G22 30.15F VSB 1 NANTUCKET RAIN 51 48 89 E21G29 30.10F FOG PROVIDENCE LGT RAIN 49 49 100 NE14 30.13F HARTFORD LGT RAIN 50 49 96 N13 30.11F ALBANY LGT RAIN 56 49 77 NE8 30.09F NEW YORK CITY LGT RAIN 54 51 90 NE23G36 29.95F FOG $$ ANZ081-ANZ082-ANZ150-NHZ014-MEZ023>029-252200- COASTAL MARINE OBSERVATIONS STATION/POSITION TIME TEMP WIND PRES WAVE AIR SEA DIR/SP/G HT/PER (UTC) (F) (DEG/KT/KT) (MB) (FT/S) MOUNT DESERT ROC 2100 41 1027.4F MATINICUS ROCK 2000 41 90/ 24/ 27 1026.4F ISLE OF SHOALS 2000 42 40/ 23/ 27 1023.8F JEFFREYS LEDGE 2036 44 N/A 6/ 5 CASHES LEDGE BUO 1950 44 43 1025.4 5/ 5 GEORGES BANK BUO 1950 45 42 1023.6 5/13 $$ .............KEY.............. WCI - WIND CHILL TC - TEMPERATURE IN CELSIUS VSB - VISIBILITY IN MILES HX - HEAT INDEX FAIR- INDICATES FEW OR NO CLOUDS BELOW 12,000 FT, WITH NO SIGNIFICANT WEATHER AND/OR OBSTRUCTIONS TO VISIBILITY.

USA.gov is the U.S. government's official web portal to all federal, state and local government web resources and services.